Location: Ottawa
(45.4167°N, 75.7000°W)
Time: 19:18:33
(UTC-05:00)

Tiangong 2 - Pass Details

Date: 10 October 2017
Orbit: 386 x 390 km, 42.8° (Epoch: 09 December)

Event Time Altitude Azimuth Distance (km) Brightness Sun altitude
Exits shadow 05:35:00 20° 184° (S) 975 3.0 -17.9°
Maximum altitude 05:35:57 23° 157° (SSE) 888 3.0 -17.7°
Drops below altitude 10° 05:38:34 10° 102° (ESE) 1,425 5.0 -17.3°
Sets 05:40:54 0° 88° (E) 2,284 6.8 -16.9°
